CAPE
nan nan nan nan nan nan nan nan nan nan nan nan nan nan nan nan nan nan nan nan nan nan nan nan nan nan nan 1 2 2 5 12 17 17 18 12 7 7 6 12 12 14 8 4 4 2 2 1 1 0 nan nan nan nan nan nan nan nan nan nan nan nan nan nan nan nan nan nan nan nan 2 1 nan nan nan nan nan nan nan nan nan nan nan nan nan nan
nan nan nan nan nan nan nan nan nan nan nan nan nan nan nan nan nan nan nan nan nan nan nan nan nan nan nan nan nan nan 1 5 8 8 8 7 4 4 5 11 11 10 6 5 5 2 0 0 0 nan nan nan nan nan nan nan nan nan nan nan nan nan nan nan nan nan nan nan 0 0 2 0 nan nan nan nan nan nan nan nan nan nan nan nan nan nan
nan nan nan nan nan nan nan nan nan nan nan nan nan nan nan nan nan nan nan nan nan nan nan nan nan nan nan nan nan nan nan 0 2 2 2 3 6 6 12 15 15 8 1 nan nan nan nan nan nan nan nan nan nan nan nan nan nan nan nan nan nan nan nan nan nan nan 0 1 2 2 1 nan nan nan nan nan nan nan nan nan nan nan nan nan nan 0
nan nan nan nan nan nan nan nan nan nan nan nan nan nan nan nan nan nan nan nan nan nan nan nan nan nan nan nan nan nan nan nan nan nan nan 2 3 3 6 5 5 0 nan nan nan nan nan nan nan nan nan nan nan nan nan nan nan nan nan nan nan nan nan nan nan 1 2 2 2 2 1 nan nan nan nan 0 1 1 0 0 0 0 1 0 0 1
nan nan nan nan nan nan nan nan nan nan nan nan nan nan nan nan nan nan nan nan nan nan nan nan nan nan nan nan nan nan nan nan nan nan nan nan nan nan nan nan nan nan nan nan nan nan nan nan nan nan nan nan nan nan nan nan nan nan nan nan nan nan 1 1 1 1 5 4 2 2 2 3 4 4 5 4 3 3 3 1 1 2 3 3 3 4
nan nan nan nan nan nan nan nan nan nan nan nan nan nan nan nan nan nan nan nan nan nan nan nan nan nan nan nan nan nan nan nan nan nan nan nan nan nan nan nan nan nan nan nan nan nan nan nan nan nan nan nan nan nan nan nan nan nan nan nan nan nan nan nan nan 1 3 4 5 5 7 8 9 9 8 6 6 6 4 3 3 6 6 5 5 6
nan nan nan nan nan nan nan nan nan nan nan nan nan nan nan nan nan nan nan nan nan nan nan nan nan nan nan nan nan nan nan nan nan nan nan nan nan nan nan nan nan nan nan nan nan nan nan nan nan nan nan nan nan nan nan nan nan nan nan nan nan nan nan nan nan nan 0 2 3 3 5 8 8 8 9 8 7 7 7 8 8 10 8 7 7 8
nan nan nan nan nan nan nan nan nan nan nan nan nan nan nan nan nan nan nan nan nan nan nan nan nan nan nan nan nan nan nan nan nan nan nan nan nan nan nan nan nan nan nan nan nan nan nan nan nan nan nan nan nan nan nan nan nan nan nan nan nan nan nan nan nan nan nan nan nan nan nan 0 2 2 4 6 2 2 4 7 7 6 8 5 5 5
nan nan nan nan nan nan nan nan nan nan nan nan nan nan nan nan nan nan nan nan nan nan nan nan nan nan nan nan nan nan nan nan nan nan nan nan nan nan nan nan nan nan nan nan nan nan nan nan nan nan nan nan nan nan nan nan nan nan nan nan nan nan nan nan nan nan nan nan nan nan nan nan nan nan nan nan nan nan nan nan nan nan 0 0 0 0
nan nan nan nan nan nan nan nan nan nan nan nan nan nan nan nan nan nan nan nan nan nan nan nan nan nan nan nan nan nan nan nan nan nan nan nan nan nan nan nan nan nan nan nan nan nan nan nan nan nan nan nan nan nan nan nan nan nan nan nan nan nan nan nan nan nan nan nan nan nan nan nan nan nan nan nan nan nan nan nan nan nan nan nan nan nan
nan nan nan nan nan nan nan nan nan nan nan nan nan nan nan nan nan nan nan nan nan nan nan nan nan nan nan nan nan nan nan nan nan nan nan nan nan nan nan nan nan nan nan nan nan nan nan nan nan nan nan nan nan nan nan nan nan nan nan nan nan nan nan nan nan nan nan nan nan nan nan nan nan nan nan nan nan nan nan nan nan nan nan nan nan nan
nan nan nan nan nan nan nan nan nan nan nan nan nan nan nan nan nan nan nan nan nan nan nan nan nan nan nan nan nan nan nan nan nan nan nan nan nan nan nan nan nan nan nan nan nan nan nan nan nan nan nan nan nan nan nan nan nan nan nan nan nan nan nan nan nan nan nan nan nan nan nan nan nan nan nan nan nan nan nan nan nan nan nan nan nan nan
nan nan nan nan nan nan nan nan nan nan nan nan nan nan nan nan nan nan nan nan nan nan nan nan nan nan nan nan nan nan nan nan nan nan nan nan nan nan nan nan nan nan nan nan nan nan nan nan nan nan nan nan nan nan nan nan nan nan nan nan nan nan nan nan nan nan nan nan nan nan nan nan nan nan nan nan nan nan nan nan nan nan nan nan nan nan
1 nan nan 0 0 nan nan nan nan nan nan nan nan nan nan nan nan nan nan nan nan nan nan nan nan nan nan nan nan nan nan nan nan nan nan nan nan nan nan nan nan nan nan nan nan nan nan nan nan nan nan nan nan nan nan nan nan nan nan nan nan nan nan nan nan nan nan nan nan nan nan nan nan nan nan nan nan nan nan nan nan nan nan nan nan nan
5 2 0 0 0 nan nan nan nan nan nan nan nan nan nan nan nan nan nan nan nan nan nan nan nan nan nan nan nan nan nan nan nan nan nan nan nan nan nan nan nan nan nan nan nan nan nan nan nan nan nan nan nan nan nan nan nan nan nan nan nan nan nan nan nan nan nan nan nan nan nan nan nan nan nan nan nan nan nan nan nan nan nan nan nan nan
4 3 2 1 1 0 nan nan nan nan nan nan nan nan nan nan nan nan nan nan nan nan nan nan nan nan nan nan nan nan nan nan nan nan nan nan nan nan nan nan nan nan nan nan nan nan nan nan nan nan nan nan nan nan nan nan nan nan nan nan nan nan nan nan nan nan nan nan nan nan nan nan nan nan nan nan nan nan nan nan nan nan nan nan nan nan
2 2 2 0 0 0 nan nan nan nan nan nan nan nan nan nan nan nan nan nan nan nan nan nan nan nan nan nan nan nan nan nan nan nan nan nan nan nan nan nan nan nan nan nan nan nan nan nan nan nan nan nan nan nan nan nan nan nan nan nan nan nan nan nan nan nan nan nan nan nan nan nan nan nan nan nan nan nan nan 0 0 nan nan nan nan nan
1 1 1 1 1 nan nan nan nan nan nan nan nan nan nan nan nan nan nan nan nan nan nan nan nan nan nan nan nan nan nan nan nan nan nan nan nan nan nan nan nan nan nan nan nan nan nan nan nan nan nan nan nan nan nan nan nan nan nan nan nan nan nan nan nan nan 0 0 0 0 1 1 0 0 0 0 1 1 0 1 1 1 2 1 1 1
2 2 0 nan nan nan nan nan nan nan nan nan nan nan nan nan nan nan nan nan nan nan nan nan nan nan nan nan nan nan nan nan nan nan nan nan nan nan nan nan nan nan nan nan nan nan nan nan nan nan nan nan nan nan nan nan nan nan nan nan nan nan nan 0 0 0 0 1 1 1 1 2 2 2 2 2 1 1 1 2 2 3 3 3 3 3
nan nan nan nan nan nan nan nan nan nan nan nan nan nan nan nan nan nan nan nan nan nan nan nan nan nan nan nan nan nan nan nan nan nan nan nan nan nan nan nan nan nan nan nan nan nan nan nan nan nan nan nan nan nan nan nan nan nan nan nan nan 0 0 0 0 0 1 2 2 2 3 3 4 4 4 5 5 5 5 6 6 6 7 7 7 7
nan nan nan nan nan nan nan nan nan nan nan nan nan nan nan nan nan nan nan nan nan nan nan nan nan nan nan nan nan nan nan nan nan nan nan nan nan nan nan nan nan nan nan nan nan nan nan nan nan nan nan nan nan nan nan nan nan nan nan 0 0 0 1 0 0 1 1 2 2 2 3 3 4 4 5 7 8 8 8 8 8 10 11 11 11 10
nan nan nan nan nan nan nan nan nan nan nan nan nan nan nan nan nan nan nan nan nan nan nan nan nan nan nan nan nan nan nan nan nan nan nan nan nan nan nan nan nan nan nan nan nan nan nan nan nan nan nan nan nan nan nan nan nan nan nan 0 0 1 1 1 1 1 1 3 3 3 3 4 5 5 7 8 11 11 9 9 9 11 12 12 12 11
nan nan nan nan nan nan nan nan nan nan nan nan nan nan nan nan nan nan nan nan nan nan nan nan nan nan nan nan nan nan nan nan nan nan nan nan nan nan nan nan nan nan nan nan nan nan nan nan nan nan nan nan nan nan nan nan nan nan nan 0 0 1 1 1 1 1 2 3 4 4 6 7 8 8 8 9 10 10 10 9 9 10 9 9 9 9
nan nan nan nan nan nan nan nan nan nan nan nan nan nan nan nan nan nan nan nan nan nan nan nan nan nan nan nan nan nan nan nan nan nan nan 1 1 1 nan nan nan nan nan nan nan nan nan nan nan nan nan nan nan nan nan nan nan nan 0 1 1 2 2 1 1 2 2 3 6 6 8 11 11 11 13 13 13 13 12 12 12 10 8 8 8 12
15 29 36 21 21 33 28 13 8 8 9 0 nan nan nan nan nan nan nan nan nan nan nan nan nan nan nan 2 nan nan nan nan nan nan nan nan nan nan nan nan nan nan nan nan nan nan nan nan nan nan nan nan nan nan nan nan nan nan 0 2 2 3 2 1 1 1 1 3 7 7 11 13 17 17 18 18 18 18 17 16 16 13 15 18 18 23
16 14 12 40 40 84 92 84 107 107 121 48 40 40 37 32 18 18 1 0 0 0 0 0 0 1 nan nan nan nan nan nan nan nan nan nan 1 1 1 nan nan nan nan nan nan nan nan nan nan nan nan nan nan nan nan nan nan nan 1 3 3 4 2 1 1 0 0 2 8 8 15 20 23 23 24 25 23 23 22 21 21 24 26 24 24 23
28 37 55 61 61 69 78 94 110 110 126 109 69 69 54 47 19 19 10 28 28 29 28 19 19 8 0 nan nan nan nan nan nan nan nan 10 15 15 3 nan nan nan nan nan nan nan nan nan nan nan nan nan nan nan nan nan nan 0 2 3 3 4 3 1 1 nan 0 4 13 13 19 28 27 27 26 23 23 23 24 33 33 37 32 25 25 23
30 33 33 37 37 44 54 66 86 86 91 92 96 96 65 24 15 15 14 21 21 14 12 6 6 1 0 nan nan nan nan nan nan nan nan nan nan nan nan nan nan nan nan 0 0 0 4 0 0 nan nan nan nan nan nan 1 1 4 6 8 8 7 6 4 4 3 9 18 26 26 30 29 28 28 21 17 19 19 28 40 40 42 28 12 12 nan
25 26 27 29 29 31 35 40 50 50 49 51 53 53 38 18 22 22 23 22 22 4 2 1 1 1 0 nan nan nan nan nan nan nan nan nan nan nan 0 nan nan nan 15 19 19 18 1 nan nan nan nan nan nan nan nan 4 4 8 14 13 13 13 11 11 11 14 21 32 32 32 36 28 20 20 18 15 17 17 28 38 38 39 27 3 3 nan
nan 0 2 10 10 14 13 7 23 23 33 33 39 39 29 15 19 19 20 14 14 5 7 4 4 0 nan nan nan nan nan nan nan nan nan nan 2 2 23 nan nan 2 9 nan nan nan nan nan nan nan nan nan nan nan nan nan nan nan 0 15 15 11 12 16 16 21 28 36 35 35 32 25 20 20 18 17 23 23 33 42 42 33 9 nan nan nan
nan nan nan nan nan nan nan nan nan nan 14 20 21 21 13 1 1 1 1 3 3 4 5 0 0 nan nan nan nan nan nan nan nan nan nan nan 7 7 4 nan nan nan nan nan nan nan nan nan nan nan nan nan nan nan nan nan nan nan nan nan nan nan 2 4 4 10 22 26 27 27 23 19 17 17 19 24 35 35 46 49 49 35 4 nan nan nan
nan nan nan nan nan nan nan nan nan nan nan nan nan nan 0 5 11 11 19 26 26 36 36 18 18 2 1 4 3 3 1 nan 1 1 nan nan 3 3 4 nan nan nan nan nan nan 0 4 7 7 5 nan nan nan nan nan nan nan nan nan nan nan nan nan nan nan nan nan nan 2 2 5 7 13 13 27 45 56 56 56 54 54 35 nan nan nan nan
nan nan nan nan nan nan nan nan nan nan nan nan nan nan nan 0 9 9 5 5 5 1 nan nan nan nan nan nan nan nan nan nan 23 23 7 nan nan nan 2 nan nan nan 0 12 12 20 18 12 12 9 nan nan nan nan nan nan nan nan nan nan nan nan nan nan nan nan nan nan nan nan nan 1 8 8 22 42 53 53 53 47 47 30 6 nan nan nan
nan nan nan nan nan nan nan nan nan nan nan nan nan nan nan nan nan nan nan nan nan nan nan nan nan 0 nan nan nan nan nan nan 6 6 4 nan 2 2 6 6 6 5 6 10 10 11 9 3 3 5 2 nan nan nan nan nan nan nan nan nan nan nan nan nan nan nan nan nan nan nan nan nan nan nan 4 14 30 30 38 35 35 29 24 0 0 nan
nan nan nan nan nan nan nan nan nan nan nan nan nan nan nan nan nan nan nan nan nan 6 39 33 33 1 nan nan nan nan nan nan nan nan 2 0 4 4 11 9 9 7 13 11 11 11 7 3 3 10 6 2 0 0 nan nan nan nan nan nan nan nan nan nan nan nan nan nan nan nan nan nan nan nan nan nan 7 7 20 28 28 30 33 40 40 15
nan nan nan nan nan nan nan nan nan nan nan nan nan nan nan nan nan nan nan nan nan nan nan nan nan nan nan nan nan nan nan nan nan nan nan nan 1 1 7 9 9 10 15 10 10 5 2 2 2 5 8 4 0 0 nan nan nan nan nan nan nan nan nan nan nan nan nan nan nan nan nan nan nan nan nan nan 8 8 19 22 22 28 37 47 47 50
nan nan nan nan nan nan nan nan nan nan nan nan nan nan nan nan nan nan nan nan nan nan nan nan nan nan nan nan nan nan nan nan nan nan nan nan nan nan 4 6 6 11 6 4 4 0 nan nan nan 0 1 nan nan nan nan nan nan nan nan nan nan nan nan nan nan nan nan nan nan nan nan nan nan nan nan 2 4 4 15 28 28 28 34 38 38 40
nan nan nan nan nan nan nan nan nan nan nan nan nan nan nan nan nan nan nan nan nan nan nan nan nan nan nan 1 nan nan nan nan nan nan nan nan nan nan nan 1 1 4 2 1 1 3 1 1 1 0 nan nan nan nan nan nan nan nan nan nan nan nan nan nan nan nan nan nan nan nan nan nan nan nan nan nan nan nan nan nan nan 3 21 20 20 26
nan nan 0 0 0 1 1 2 5 5 3 2 2 2 0 nan nan nan nan nan nan nan nan nan nan nan nan nan nan nan nan nan nan nan nan nan nan nan nan nan nan nan nan 0 0 2 2 2 2 2 1 nan nan nan nan nan nan nan nan nan nan nan nan nan nan nan nan nan nan nan nan nan nan nan nan nan nan nan nan nan nan nan nan nan nan nan
2 1 nan 6 6 5 5 9 6 6 0 nan 0 0 nan nan nan nan nan nan nan nan nan nan nan nan nan nan nan nan nan nan nan nan nan nan nan nan nan nan nan nan nan nan nan nan nan nan nan 2 5 3 2 2 2 nan nan 0 6 nan nan nan nan nan nan nan nan nan nan nan nan nan nan nan nan nan nan nan nan nan nan nan nan nan nan nan
4 2 3 3 3 4 6 1 nan nan nan nan nan nan nan nan nan nan nan nan nan nan nan nan nan nan nan nan nan nan nan nan nan nan nan nan nan nan nan nan nan nan nan nan nan nan 0 0 0 3 3 4 7 7 7 6 6 13 17 3 3 1 nan nan nan nan nan nan nan nan nan nan nan nan nan nan nan nan nan nan nan nan nan nan nan nan
8 5 2 0 0 nan nan nan nan nan nan nan nan nan nan nan nan nan nan nan nan nan nan 0 0 0 nan nan nan nan nan nan nan nan 0 1 0 0 nan nan nan 3 6 7 7 8 10 10 10 7 4 4 5 5 5 5 5 8 9 1 1 0 4 5 5 nan nan nan nan nan nan nan nan nan nan nan nan nan nan nan nan nan 0 nan nan nan
2 1 nan nan nan nan 0 0 0 0 0 nan nan nan nan nan nan nan nan nan nan nan 0 2 2 7 3 2 nan nan nan nan 2 2 3 nan nan nan nan nan nan nan nan 4 4 4 7 14 14 10 8 6 4 4 3 3 3 3 3 4 4 5 6 0 0 nan nan nan nan nan nan nan nan nan nan nan nan nan nan 0 0 9 14 2 2 2
0 nan nan nan nan 0 0 nan nan nan 0 nan 0 0 0 nan 1 1 4 1 1 1 2 3 3 3 2 0 nan nan nan nan nan nan nan nan nan nan nan nan nan nan nan nan nan 1 1 6 6 5 6 8 7 7 6 5 5 5 2 5 5 7 8 0 0 nan nan nan nan nan nan nan nan nan nan nan nan nan nan 0 0 0 11 8 8 7
nan nan nan 0 0 1 nan nan nan nan nan nan nan nan 0 0 2 2 1 nan nan 0 1 1 1 1 0 nan 0 0 nan nan nan nan nan 1 15 15 3 nan nan nan nan nan nan nan 0 1 1 2 4 8 13 13 15 15 15 17 19 12 12 11 3 1 1 nan 1 nan nan nan nan nan nan nan nan 0 1 1 1 3 3 3 4 7 7 5
nan nan nan nan nan nan 0 nan nan nan nan nan nan nan nan nan nan nan nan nan nan 0 0 1 1 0 nan 0 0 0 nan nan nan nan nan nan nan nan nan 0 0 nan nan nan nan nan nan nan nan 0 1 2 5 5 10 10 10 12 18 24 24 19 15 4 4 0 0 0 nan nan nan nan nan nan 2 3 0 0 1 4 4 4 nan nan nan nan
nan nan nan nan nan nan nan nan nan nan nan nan nan nan nan nan nan nan nan nan nan nan nan 1 1 0 nan 0 nan nan nan nan nan nan nan nan nan nan nan nan nan 1 nan nan nan nan nan nan nan nan nan nan 0 0 nan 0 0 3 7 8 8 12 13 9 9 4 2 3 1 1 nan nan 2 2 5 6 3 3 1 nan nan nan nan nan nan nan
nan nan nan nan nan nan nan nan nan nan nan nan nan nan nan nan nan nan nan nan nan nan 2 nan nan nan nan nan nan nan nan nan nan nan nan nan nan nan nan nan nan nan 0 1 1 3 0 nan nan nan nan nan nan nan nan nan nan 0 0 2 2 3 6 6 6 4 5 6 0 0 0 3 4 4 4 4 2 2 0 nan nan nan nan nan nan nan
nan nan nan nan nan nan nan nan nan nan nan nan nan nan nan nan 14 14 nan nan nan nan nan nan nan nan nan nan nan nan 1 0 nan nan nan nan nan nan nan nan nan nan nan nan nan nan 0 nan nan nan nan nan nan nan nan nan nan nan nan 0 0 1 1 1 1 1 1 1 nan nan 0 3 5 5 4 3 2 2 1 nan nan nan nan nan nan nan
nan nan nan nan nan nan nan nan nan nan nan nan nan nan nan nan nan nan nan nan nan nan nan nan nan nan nan nan nan nan nan nan nan nan nan nan nan nan nan nan nan nan nan nan nan nan nan 0 0 2 9 1 nan nan nan nan nan nan nan 0 0 0 0 1 1 1 0 0 nan nan nan nan 0 0 0 1 0 0 nan nan nan nan nan nan nan nan
nan nan nan nan nan nan nan nan nan nan nan nan nan nan nan nan nan nan nan nan nan nan nan nan nan nan nan nan nan nan nan nan nan nan nan nan nan nan nan nan nan nan nan nan nan nan nan nan nan nan 3 19 5 5 nan nan nan nan nan nan nan nan nan 0 0 0 0 nan nan nan nan nan nan nan nan 0 1 1 1 nan nan nan nan nan nan nan
CIN
nan nan nan nan nan nan nan nan nan nan nan nan nan nan nan nan nan nan nan nan nan nan nan nan nan nan nan -0 -0 -0 -0 -0 -0 -0 -0 -0 -0 -0 -0 -0 -0 -0 -12 -33 -33 -41 -44 -45 -45 -40 nan nan nan nan nan nan nan nan nan nan nan nan nan nan nan nan nan nan nan nan -0 -0 nan nan nan nan nan nan nan nan nan nan nan nan nan nan
nan nan nan nan nan nan nan nan nan nan nan nan nan nan nan nan nan nan nan nan nan nan nan nan nan nan nan nan nan nan -0 -0 -0 -0 -0 -0 -0 -0 -0 -0 -0 -0 -11 -23 -23 -30 -36 -37 -37 nan nan nan nan nan nan nan nan nan nan nan nan nan nan nan nan nan nan nan -1 -1 -0 -0 nan nan nan nan nan nan nan nan nan nan nan nan nan nan
nan nan nan nan nan nan nan nan nan nan nan nan nan nan nan nan nan nan nan nan nan nan nan nan nan nan nan nan nan nan nan -0 -0 -0 -0 -0 -0 -0 -0 -0 -0 -3 -14 nan nan nan nan nan nan nan nan nan nan nan nan nan nan nan nan nan nan nan nan nan nan nan -4 -3 -0 -0 -3 nan nan nan nan nan nan nan nan nan nan nan nan nan nan -0
nan nan nan nan nan nan nan nan nan nan nan nan nan nan nan nan nan nan nan nan nan nan nan nan nan nan nan nan nan nan nan nan nan nan nan -0 -0 -0 -0 -1 -1 -12 nan nan nan nan nan nan nan nan nan nan nan nan nan nan nan nan nan nan nan nan nan nan nan -2 -1 -2 -4 -4 -5 nan nan nan nan -0 -0 -0 -0 -0 -0 -0 -0 -0 -0 -0
nan nan nan nan nan nan nan nan nan nan nan nan nan nan nan nan nan nan nan nan nan nan nan nan nan nan nan nan nan nan nan nan nan nan nan nan nan nan nan nan nan nan nan nan nan nan nan nan nan nan nan nan nan nan nan nan nan nan nan nan nan nan -0 -0 -0 -1 -2 -3 -5 -5 -4 -2 -0 -0 -0 -0 -0 -0 -0 -0 -0 -0 -0 -0 -0 -0
nan nan nan nan nan nan nan nan nan nan nan nan nan nan nan nan nan nan nan nan nan nan nan nan nan nan nan nan nan nan nan nan nan nan nan nan nan nan nan nan nan nan nan nan nan nan nan nan nan nan nan nan nan nan nan nan nan nan nan nan nan nan nan nan nan -0 -1 -2 -2 -2 -1 -1 -0 -0 -0 -0 -0 -0 -0 -0 -0 -0 -0 -0 -0 -0
nan nan nan nan nan nan nan nan nan nan nan nan nan nan nan nan nan nan nan nan nan nan nan nan nan nan nan nan nan nan nan nan nan nan nan nan nan nan nan nan nan nan nan nan nan nan nan nan nan nan nan nan nan nan nan nan nan nan nan nan nan nan nan nan nan nan -0 -0 -0 -0 -0 -0 -0 -0 -0 -0 -0 -0 -0 -0 -0 -0 -0 -0 -0 -0
nan nan nan nan nan nan nan nan nan nan nan nan nan nan nan nan nan nan nan nan nan nan nan nan nan nan nan nan nan nan nan nan nan nan nan nan nan nan nan nan nan nan nan nan nan nan nan nan nan nan nan nan nan nan nan nan nan nan nan nan nan nan nan nan nan nan nan nan nan nan nan -0 -0 -0 -0 -0 -1 -1 -0 -0 -0 -0 -0 -0 -0 -0
nan nan nan nan nan nan nan nan nan nan nan nan nan nan nan nan nan nan nan nan nan nan nan nan nan nan nan nan nan nan nan nan nan nan nan nan nan nan nan nan nan nan nan nan nan nan nan nan nan nan nan nan nan nan nan nan nan nan nan nan nan nan nan nan nan nan nan nan nan nan nan nan nan nan nan nan nan nan nan nan nan nan -0 -0 -0 -0
nan nan nan nan nan nan nan nan nan nan nan nan nan nan nan nan nan nan nan nan nan nan nan nan nan nan nan nan nan nan nan nan nan nan nan nan nan nan nan nan nan nan nan nan nan nan nan nan nan nan nan nan nan nan nan nan nan nan nan nan nan nan nan nan nan nan nan nan nan nan nan nan nan nan nan nan nan nan nan nan nan nan nan nan nan nan
nan nan nan nan nan nan nan nan nan nan nan nan nan nan nan nan nan nan nan nan nan nan nan nan nan nan nan nan nan nan nan nan nan nan nan nan nan nan nan nan nan nan nan nan nan nan nan nan nan nan nan nan nan nan nan nan nan nan nan nan nan nan nan nan nan nan nan nan nan nan nan nan nan nan nan nan nan nan nan nan nan nan nan nan nan nan
nan nan nan nan nan nan nan nan nan nan nan nan nan nan nan nan nan nan nan nan nan nan nan nan nan nan nan nan nan nan nan nan nan nan nan nan nan nan nan nan nan nan nan nan nan nan nan nan nan nan nan nan nan nan nan nan nan nan nan nan nan nan nan nan nan nan nan nan nan nan nan nan nan nan nan nan nan nan nan nan nan nan nan nan nan nan
nan nan nan nan nan nan nan nan nan nan nan nan nan nan nan nan nan nan nan nan nan nan nan nan nan nan nan nan nan nan nan nan nan nan nan nan nan nan nan nan nan nan nan nan nan nan nan nan nan nan nan nan nan nan nan nan nan nan nan nan nan nan nan nan nan nan nan nan nan nan nan nan nan nan nan nan nan nan nan nan nan nan nan nan nan nan
-11 nan nan -13 -13 nan nan nan nan nan nan nan nan nan nan nan nan nan nan nan nan nan nan nan nan nan nan nan nan nan nan nan nan nan nan nan nan nan nan nan nan nan nan nan nan nan nan nan nan nan nan nan nan nan nan nan nan nan nan nan nan nan nan nan nan nan nan nan nan nan nan nan nan nan nan nan nan nan nan nan nan nan nan nan nan nan
-7 -12 -11 -10 -10 nan nan nan nan nan nan nan nan nan nan nan nan nan nan nan nan nan nan nan nan nan nan nan nan nan nan nan nan nan nan nan nan nan nan nan nan nan nan nan nan nan nan nan nan nan nan nan nan nan nan nan nan nan nan nan nan nan nan nan nan nan nan nan nan nan nan nan nan nan nan nan nan nan nan nan nan nan nan nan nan nan
-7 -8 -5 -5 -5 -6 nan nan nan nan nan nan nan nan nan nan nan nan nan nan nan nan nan nan nan nan nan nan nan nan nan nan nan nan nan nan nan nan nan nan nan nan nan nan nan nan nan nan nan nan nan nan nan nan nan nan nan nan nan nan nan nan nan nan nan nan nan nan nan nan nan nan nan nan nan nan nan nan nan nan nan nan nan nan nan nan
-12 -9 -5 -6 -6 -4 nan nan nan nan nan nan nan nan nan nan nan nan nan nan nan nan nan nan nan nan nan nan nan nan nan nan nan nan nan nan nan nan nan nan nan nan nan nan nan nan nan nan nan nan nan nan nan nan nan nan nan nan nan nan nan nan nan nan nan nan nan nan nan nan nan nan nan nan nan nan nan nan nan -0 -0 nan nan nan nan nan
-14 -10 -8 -6 -6 nan nan nan nan nan nan nan nan nan nan nan nan nan nan nan nan nan nan nan nan nan nan nan nan nan nan nan nan nan nan nan nan nan nan nan nan nan nan nan nan nan nan nan nan nan nan nan nan nan nan nan nan nan nan nan nan nan nan nan nan nan -0 -0 -0 -0 -0 -0 -0 -0 -0 -0 -0 -0 -0 -0 -0 -0 -0 -0 -0 -0
-8 -9 -10 nan nan nan nan nan nan nan nan nan nan nan nan nan nan nan nan nan nan nan nan nan nan nan nan nan nan nan nan nan nan nan nan nan nan nan nan nan nan nan nan nan nan nan nan nan nan nan nan nan nan nan nan nan nan nan nan nan nan nan nan -0 -0 -0 -0 -0 -0 -0 -0 -0 -0 -0 -0 -0 -0 -0 -0 -0 -0 -0 -0 -0 -0 -0
nan nan nan nan nan nan nan nan nan nan nan nan nan nan nan nan nan nan nan nan nan nan nan nan nan nan nan nan nan nan nan nan nan nan nan nan nan nan nan nan nan nan nan nan nan nan nan nan nan nan nan nan nan nan nan nan nan nan nan nan nan -0 -0 -0 -0 -0 -0 -0 -0 -0 -0 -0 -0 -0 -0 -0 -0 -0 -0 -0 -0 -0 -0 -0 -0 -0
nan nan nan nan nan nan nan nan nan nan nan nan nan nan nan nan nan nan nan nan nan nan nan nan nan nan nan nan nan nan nan nan nan nan nan nan nan nan nan nan nan nan nan nan nan nan nan nan nan nan nan nan nan nan nan nan nan nan nan -0 -0 -0 -0 -0 -0 -0 -0 -0 -0 -0 -0 -0 -0 -0 -0 -0 -0 -0 -0 -0 -0 -0 -0 -0 -0 -0
nan nan nan nan nan nan nan nan nan nan nan nan nan nan nan nan nan nan nan nan nan nan nan nan nan nan nan nan nan nan nan nan nan nan nan nan nan nan nan nan nan nan nan nan nan nan nan nan nan nan nan nan nan nan nan nan nan nan nan -0 -0 -0 -0 -0 -0 -0 -0 -0 -0 -0 -0 -0 -0 -0 -0 -0 -0 -0 -0 -0 -0 -0 -0 -0 -0 -0
nan nan nan nan nan nan nan nan nan nan nan nan nan nan nan nan nan nan nan nan nan nan nan nan nan nan nan nan nan nan nan nan nan nan nan nan nan nan nan nan nan nan nan nan nan nan nan nan nan nan nan nan nan nan nan nan nan nan nan -0 -0 -0 -0 -0 -0 -0 -0 -0 -0 -0 -0 -0 -0 -0 -0 -0 -0 -0 -0 -0 -0 -0 -0 -0 -0 -0
nan nan nan nan nan nan nan nan nan nan nan nan nan nan nan nan nan nan nan nan nan nan nan nan nan nan nan nan nan nan nan nan nan nan nan -3 -3 -3 nan nan nan nan nan nan nan nan nan nan nan nan nan nan nan nan nan nan nan nan -0 -0 -0 -0 -0 -0 -0 -0 -0 -0 -0 -0 -0 -0 -0 -0 -0 -0 -0 -0 -0 -0 -0 -0 -0 -0 -0 -0
-17 -11 -8 -13 -13 -7 -9 -20 -25 -25 -23 -56 nan nan nan nan nan nan nan nan nan nan nan nan nan nan nan -2 nan nan nan nan nan nan nan nan nan nan nan nan nan nan nan nan nan nan nan nan nan nan nan nan nan nan nan nan nan nan -0 -0 -0 -0 -0 -0 -0 -0 -0 -0 -0 -0 -0 -0 -0 -0 -0 -0 -0 -0 -0 -0 -0 -0 -0 -0 -0 -1
-8 -9 -18 -11 -11 -0 -0 -0 -0 -0 -1 -13 -18 -18 -14 -8 -14 -14 -38 -34 -34 -31 -24 -22 -22 -22 nan nan nan nan nan nan nan nan nan nan -13 -13 -25 nan nan nan nan nan nan nan nan nan nan nan nan nan nan nan nan nan nan nan -0 -0 -0 -0 -0 -0 -0 -0 -0 -0 -0 -0 -0 -0 -0 -0 -0 -0 -0 -0 -0 -0 -0 -0 -1 -3 -3 -2
-0 -0 -0 -0 -0 -0 -0 -0 -0 -0 -0 -0 -2 -2 -9 -5 -5 -5 -7 -6 -6 -5 -3 -6 -6 -8 -15 nan nan nan nan nan nan nan nan -12 -5 -5 -21 nan nan nan nan nan nan nan nan nan nan nan nan nan nan nan nan nan nan -4 -1 -0 -0 -0 -0 -0 -0 nan -0 -0 -0 -0 -0 -0 -0 -0 -0 -0 -0 -0 -0 -0 -0 -0 -0 -1 -1 -0
-0 -0 -0 -0 -0 -0 -0 -0 -0 -0 -0 -0 -0 -0 -0 -6 -2 -2 -2 -5 -5 -9 -3 -3 -3 -5 -7 nan nan nan nan nan nan nan nan nan nan nan nan nan nan nan nan -29 -29 -38 -15 -26 -26 nan nan nan nan nan nan -15 -15 -7 -3 -1 -1 -0 -0 -0 -0 -0 -0 -0 -0 -0 -0 -0 -0 -0 -0 -0 -0 -0 -0 -0 -0 -0 -0 -9 -9 nan
-0 -0 -0 -0 -0 -0 -0 -0 -0 -0 -0 -0 -0 -0 -0 -8 -1 -1 -1 -4 -4 -10 -6 -4 -4 -4 -8 nan nan nan nan nan nan nan nan nan nan nan -28 nan nan nan -11 -8 -8 -7 -27 nan nan nan nan nan nan nan nan -22 -22 -13 -7 -4 -4 -1 -1 -0 -0 -0 -0 -0 -0 -0 -0 -0 -0 -0 -0 -0 -0 -0 -0 -0 -0 -0 -8 -24 -24 nan
nan -2 -0 -0 -0 -0 -0 -0 -0 -0 -0 -0 -0 -0 -0 -7 -3 -3 -2 -7 -7 -6 -2 -2 -2 -6 nan nan nan nan nan nan nan nan nan nan -11 -11 -22 nan nan -36 -18 nan nan nan nan nan nan nan nan nan nan nan nan nan nan nan -42 -9 -9 -8 -5 -2 -2 -1 -0 -0 -0 -0 -0 -0 -0 -0 -0 -0 -0 -0 -0 -0 -0 -6 -34 nan nan nan
nan nan nan nan nan nan nan nan nan nan -0 -0 -0 -0 -0 -26 -26 -26 -24 -16 -16 -8 -3 -8 -8 nan nan nan nan nan nan nan nan nan nan nan -10 -10 -38 nan nan nan nan nan nan nan nan nan nan nan nan nan nan nan nan nan nan nan nan nan nan nan -15 -8 -8 -5 -1 -1 -0 -0 -0 -0 -0 -0 -0 -0 -0 -0 -0 -0 -0 -6 -46 nan nan nan
nan nan nan nan nan nan nan nan nan nan nan nan nan nan -10 -6 -8 -8 -9 -6 -6 -1 -0 -2 -2 -1 -1 -1 -2 -2 -4 nan -19 -19 nan nan -11 -11 -12 nan nan nan nan nan nan -13 -5 -5 -5 -14 nan nan nan nan nan nan nan nan nan nan nan nan nan nan nan nan nan nan -0 -0 -0 -0 -0 -0 -0 -0 -0 -0 -0 -0 -0 -0 nan nan nan nan
nan nan nan nan nan nan nan nan nan nan nan nan nan nan nan -18 -7 -7 -20 -21 -21 -25 nan nan nan nan nan nan nan nan nan nan -0 -0 -1 nan nan nan -5 nan nan nan -14 -10 -10 -9 -6 -7 -7 -8 nan nan nan nan nan nan nan nan nan nan nan nan nan nan nan nan nan nan nan nan nan -5 -2 -2 -0 -0 -0 -0 -0 -0 -0 -0 -8 nan nan nan
nan nan nan nan nan nan nan nan nan nan nan nan nan nan nan nan nan nan nan nan nan nan nan nan nan -12 nan nan nan nan nan nan -0 -0 -1 nan -5 -5 -5 -6 -6 -6 -7 -6 -6 -9 -10 -15 -15 -9 -10 nan nan nan nan nan nan nan nan nan nan nan nan nan nan nan nan nan nan nan nan nan nan nan -6 -0 -0 -0 -0 -0 -0 -0 -0 -39 -39 nan
nan nan nan nan nan nan nan nan nan nan nan nan nan nan nan nan nan nan nan nan nan -12 -2 -2 -2 -16 nan nan nan nan nan nan nan nan -3 -12 -5 -5 -2 -6 -6 -7 -4 -6 -6 -6 -8 -10 -10 -4 -5 -8 -23 -23 nan nan nan nan nan nan nan nan nan nan nan nan nan nan nan nan nan nan nan nan nan nan -3 -3 -0 -0 -0 -0 -0 -0 -0 -9
nan nan nan nan nan nan nan nan nan nan nan nan nan nan nan nan nan nan nan nan nan nan nan nan nan nan nan nan nan nan nan nan nan nan nan nan -10 -10 -2 -4 -4 -7 -5 -4 -4 -8 -9 -7 -7 -7 -3 -5 -11 -11 nan nan nan nan nan nan nan nan nan nan nan nan nan nan nan nan nan nan nan nan nan nan -0 -0 -0 -0 -0 -0 -0 -0 -0 -0
nan nan nan nan nan nan nan nan nan nan nan nan nan nan nan nan nan nan nan nan nan nan nan nan nan nan nan nan nan nan nan nan nan nan nan nan nan nan -3 -3 -3 -4 -7 -5 -5 -9 nan nan nan -7 -5 nan nan nan nan nan nan nan nan nan nan nan nan nan nan nan nan nan nan nan nan nan nan nan nan -1 -1 -1 -0 -0 -0 -0 -0 -0 -0 -0
nan nan nan nan nan nan nan nan nan nan nan nan nan nan nan nan nan nan nan nan nan nan nan nan nan nan nan -2 nan nan nan nan nan nan nan nan nan nan nan -4 -4 -3 -6 -7 -7 -5 -5 -6 -6 -4 nan nan nan nan nan nan nan nan nan nan nan nan nan nan nan nan nan nan nan nan nan nan nan nan nan nan nan nan nan nan nan -5 -0 -0 -0 -0
nan nan -11 -11 -11 -12 -11 -9 -5 -5 -10 -10 -5 -5 -9 nan nan nan nan nan nan nan nan nan nan nan nan nan nan nan nan nan nan nan nan nan nan nan nan nan nan nan nan -12 -12 -7 -5 -3 -3 -3 -3 nan nan nan nan nan nan nan nan nan nan nan nan nan nan nan nan nan nan nan nan nan nan nan nan nan nan nan nan nan nan nan nan nan nan nan
-3 -8 nan -1 -1 -4 -5 -1 -3 -3 -8 nan -3 -3 nan nan nan nan nan nan nan nan nan nan nan nan nan nan nan nan nan nan nan nan nan nan nan nan nan nan nan nan nan nan nan nan nan nan nan -4 -2 -5 -7 -7 -9 nan nan -22 -9 nan nan nan nan nan nan nan nan nan nan nan nan nan nan nan nan nan nan nan nan nan nan nan nan nan nan nan
-1 -4 -2 -4 -4 -1 -0 -7 nan nan nan nan nan nan nan nan nan nan nan nan nan nan nan nan nan nan nan nan nan nan nan nan nan nan nan nan nan nan nan nan nan nan nan nan nan nan -4 -5 -5 -3 -5 -5 -3 -3 -4 -6 -6 -3 -1 -6 -6 -9 nan nan nan nan nan nan nan nan nan nan nan nan nan nan nan nan nan nan nan nan nan nan nan nan
-0 -0 -2 -5 -5 nan nan nan nan nan nan nan nan nan nan nan nan nan nan nan nan nan nan -15 -15 -15 nan nan nan nan nan nan nan nan -26 -16 -19 -19 nan nan nan -3 -2 -2 -2 -2 -2 -1 -1 -2 -4 -5 -4 -4 -5 -6 -6 -3 -2 -9 -9 -15 -8 -10 -10 nan nan nan nan nan nan nan nan nan nan nan nan nan nan nan nan nan -19 nan nan nan
-0 -1 nan nan nan nan -15 -12 -13 -13 -17 nan nan nan nan nan nan nan nan nan nan nan -11 -9 -9 -4 -5 -7 nan nan nan nan -25 -25 -20 nan nan nan nan nan nan nan nan -2 -2 -2 -2 -1 -1 -2 -4 -4 -4 -4 -4 -5 -5 -6 -8 -9 -9 -8 -5 -21 -21 nan nan nan nan nan nan nan nan nan nan nan nan nan nan -22 -22 -7 -5 -21 -21 -17
-2 nan nan nan nan -15 -11 nan nan nan -14 nan -10 -10 -17 nan -9 -9 -3 -6 -6 -6 -5 -6 -6 -8 -5 -6 nan nan nan nan nan nan nan nan nan nan nan nan nan nan nan nan nan -3 -5 -2 -2 -3 -4 -4 -3 -3 -4 -6 -6 -8 -13 -13 -13 -8 -4 -22 -22 nan nan nan nan nan nan nan nan nan nan nan nan nan nan -25 -25 -29 -11 -16 -16 -15
nan nan nan -7 -7 -6 nan nan nan nan nan nan nan nan -14 -14 -4 -4 -6 nan nan -7 -6 -7 -7 -7 -5 nan -8 -8 nan nan nan nan nan -20 -0 -0 -19 nan nan nan nan nan nan nan -3 -3 -3 -4 -5 -3 -2 -2 -1 -2 -2 -3 -4 -11 -11 -9 -17 -24 -24 nan -19 nan nan nan nan nan nan nan nan -21 -18 -18 -20 -18 -18 -20 -19 -15 -15 -15
nan nan nan nan nan nan -4 nan nan nan nan nan nan nan nan nan nan nan nan nan nan -8 -9 -8 -8 -5 nan -4 -6 -6 nan nan nan nan nan nan nan nan nan -24 -24 nan nan nan nan nan nan nan nan -5 -3 -3 -2 -2 -2 -2 -2 -3 -3 -3 -3 -6 -8 -21 -21 -32 -30 -21 nan nan nan nan nan nan -11 -10 -18 -18 -18 -15 -15 -16 nan nan nan nan
nan nan nan nan nan nan nan nan nan nan nan nan nan nan nan nan nan nan nan nan nan nan nan -7 -7 -6 nan -5 nan nan nan nan nan nan nan nan nan nan nan nan nan -19 nan nan nan nan nan nan nan nan nan nan -3 -3 nan -6 -6 -3 -3 -5 -5 -6 -6 -10 -10 -19 -22 -17 -21 -21 nan nan -15 -15 -6 -7 -10 -10 -15 nan nan nan nan nan nan nan
nan nan nan nan nan nan nan nan nan nan nan nan nan nan nan nan nan nan nan nan nan nan -2 nan nan nan nan nan nan nan nan nan nan nan nan nan nan nan nan nan nan nan -13 -9 -9 -6 -9 nan nan nan nan nan nan nan nan nan nan -6 -6 -6 -6 -6 -5 -8 -8 -15 -19 -16 -30 -30 -32 -16 -9 -9 -8 -8 -11 -11 -17 nan nan nan nan nan nan nan
nan nan nan nan nan nan nan nan nan nan nan nan nan nan nan nan -0 -0 nan nan nan nan nan nan nan nan nan nan nan nan -1 -3 nan nan nan nan nan nan nan nan nan nan nan nan nan nan -7 nan nan nan nan nan nan nan nan nan nan nan nan -7 -7 -6 -6 -8 -8 -14 -19 -23 nan nan -32 -15 -10 -10 -11 -10 -9 -9 -13 nan nan nan nan nan nan nan
nan nan nan nan nan nan nan nan nan nan nan nan nan nan nan nan nan nan nan nan nan nan nan nan nan nan nan nan nan nan nan nan nan nan nan nan nan nan nan nan nan nan nan nan nan nan nan -6 -6 -4 -0 -1 nan nan nan nan nan nan nan -6 -6 -6 -5 -6 -6 -10 -14 -19 nan nan nan nan -20 -20 -16 -9 -12 -12 nan nan nan nan nan nan nan nan
nan nan nan nan nan nan nan nan nan nan nan nan nan nan nan nan nan nan nan nan nan nan nan nan nan nan nan nan nan nan nan nan nan nan nan nan nan nan nan nan nan nan nan nan nan nan nan nan nan nan -6 -0 -0 -0 nan nan nan nan nan nan nan nan nan -7 -7 -10 -12 nan nan nan nan nan nan nan nan -8 -5 -5 -5 nan nan nan nan nan nan nan
Wind_Speed
2 2 3 3 3 3 3 3 3 3 3 3 3 3 3 3 2 2 2 2 2 2 2 2 3 3 4 6 8 10 11 12 14 15 16 17 18 19 19 17 15 14 13 12 11 11 10 10 10 10 11 11 12 12 13 13 14 14 14 14 14 15 15 15 15 16 16 16 16 15 13 12 11 11 11 11 12 13 13 14 15 16 16 16 17 17
2 3 3 3 3 3 3 3 3 3 4 4 3 3 3 4 3 3 2 2 2 3 3 3 3 4 5 5 7 9 10 12 13 15 16 16 17 17 16 15 14 13 12 11 11 10 10 10 10 10 10 10 10 11 11 12 12 12 12 13 13 14 14 14 15 15 15 15 14 13 12 11 10 10 10 11 12 13 13 14 15 15 16 17 17 17
3 3 3 3 3 3 3 4 4 3 3 4 4 4 4 4 4 3 3 4 4 4 4 4 4 5 5 6 7 9 11 12 13 14 15 15 15 14 14 13 12 12 11 11 10 10 10 10 10 10 10 10 10 10 10 10 10 11 11 11 11 12 12 13 13 14 14 13 12 11 10 10 10 10 10 11 12 12 13 14 14 15 16 16 17 18
3 3 3 2 2 2 3 3 3 3 3 3 4 4 3 3 3 3 3 3 4 4 4 4 5 5 5 5 7 9 11 13 13 14 14 13 13 12 12 12 12 12 11 11 11 11 11 11 10 10 10 10 10 9 9 9 9 9 10 10 10 10 11 11 11 12 12 11 10 10 9 9 10 10 11 11 12 12 13 13 14 14 15 16 17 17
4 4 4 3 3 3 3 3 3 3 3 3 3 3 3 3 3 3 3 3 3 3 4 4 4 5 4 4 6 8 10 12 12 12 12 12 11 11 12 12 12 12 12 13 13 13 12 12 12 11 10 10 9 9 9 8 8 9 9 10 10 10 10 10 10 10 9 9 9 9 9 9 10 10 11 11 12 12 13 13 13 14 15 15 16 17
4 4 4 4 4 4 3 3 3 3 3 3 3 3 3 3 3 3 3 3 3 3 3 3 3 3 3 3 4 7 9 10 10 11 11 11 11 12 12 12 13 13 13 14 14 14 13 13 12 11 10 9 9 8 8 8 8 8 9 9 10 10 10 10 10 10 9 9 9 9 9 10 10 10 11 11 11 12 12 13 13 14 14 15 16 17
4 3 3 3 3 3 3 3 3 4 4 3 4 4 4 4 4 4 4 3 3 3 3 3 3 2 2 3 5 7 8 9 10 11 11 12 12 12 13 13 14 14 14 14 14 14 14 13 12 10 9 9 9 9 8 8 8 8 9 9 10 10 10 10 10 10 10 10 9 9 9 10 10 10 10 11 11 11 12 13 13 14 14 15 15 16
4 3 3 3 3 3 2 3 3 3 3 3 4 4 4 4 4 4 4 3 3 3 3 3 3 3 3 4 5 6 6 7 8 8 9 10 11 12 13 14 14 15 15 15 15 14 13 12 11 10 9 9 9 9 9 9 9 9 9 10 10 10 10 10 10 10 11 10 10 10 10 10 10 10 10 10 11 11 12 12 13 14 14 15 15 16
4 4 3 2 2 3 3 3 2 2 3 3 3 4 5 4 4 4 3 3 3 2 3 3 4 4 4 4 4 5 6 7 7 7 8 8 8 9 11 13 14 15 15 15 14 13 12 11 10 9 9 10 10 10 10 9 10 10 10 10 11 11 11 11 11 11 11 11 11 11 11 11 11 11 11 11 11 11 11 12 13 14 15 15 16 16
3 3 3 2 2 2 3 3 3 2 2 2 2 2 3 4 4 4 4 4 3 2 2 3 4 5 5 4 4 4 6 8 9 11 12 11 12 12 13 13 13 13 14 13 13 11 10 10 10 10 10 10 10 10 10 10 10 11 11 12 12 12 12 12 12 12 12 12 12 12 12 12 12 12 12 12 12 12 12 13 13 14 15 15 16 17
3 3 3 3 2 2 2 3 2 2 2 2 2 2 2 2 3 4 5 5 4 3 3 3 3 4 5 5 4 4 5 6 8 9 11 12 14 14 14 13 12 11 12 11 10 10 9 10 10 11 11 11 11 11 10 11 11 11 12 13 13 14 14 14 14 14 14 13 13 13 13 13 13 13 13 13 13 13 13 14 14 14 15 16 16 17
3 3 3 3 2 2 2 2 2 2 2 3 3 3 2 1 1 2 4 6 6 5 4 3 3 3 4 4 4 5 5 5 6 6 6 7 8 9 9 8 8 8 8 8 8 8 9 10 11 11 11 11 11 11 11 11 11 12 13 14 14 14 15 15 15 15 15 15 15 15 15 15 15 15 15 15 15 15 15 15 15 15 15 16 16 17
3 2 2 2 2 2 2 2 2 2 2 2 3 4 4 2 2 2 3 4 5 5 5 5 4 3 3 3 4 4 4 5 5 4 4 4 4 4 4 4 4 3 4 4 5 6 8 10 10 10 11 10 11 11 12 12 12 13 14 14 15 15 15 16 16 16 16 16 16 16 16 16 16 16 16 16 16 16 16 16 16 16 16 16 16 17
3 2 2 3 3 3 2 2 3 3 3 2 3 3 3 3 2 3 3 4 4 4 4 5 5 4 3 4 3 3 3 3 3 3 3 3 2 2 2 3 3 3 3 4 4 5 7 8 8 8 10 10 10 11 11 12 13 14 15 15 16 16 16 16 17 17 17 17 17 17 17 17 17 17 17 17 17 17 17 17 17 16 16 16 16 17
3 3 4 4 4 4 3 3 3 3 3 3 3 3 3 3 3 3 4 5 5 4 4 5 5 5 4 3 3 2 1 2 2 3 3 3 2 2 2 3 4 4 4 5 5 6 7 7 6 6 7 8 9 10 12 13 14 15 16 16 17 17 17 17 17 17 17 17 18 18 18 17 17 17 17 17 17 17 17 17 17 17 17 16 17 17
4 4 5 6 6 5 4 3 4 4 4 3 3 3 3 3 3 3 4 5 5 4 4 5 6 5 4 3 2 1 1 1 2 2 4 4 3 2 2 3 4 5 4 5 5 6 6 6 6 6 6 9 11 14 15 16 16 17 17 18 18 18 18 18 18 18 18 18 18 18 18 18 18 18 18 18 18 17 17 17 17 17 17 17 17 17
4 4 5 6 6 6 5 4 4 4 4 4 3 3 4 4 4 3 3 4 4 4 4 5 5 5 4 3 2 2 2 1 2 3 4 4 3 2 2 3 4 6 6 6 6 6 5 5 6 6 6 10 13 16 17 18 18 19 19 19 18 18 18 18 18 18 18 18 18 18 18 18 18 18 18 18 18 18 18 18 18 18 17 17 17 17
4 4 5 5 6 6 5 4 4 4 4 4 3 3 3 3 3 3 4 4 4 5 5 5 5 5 5 4 3 2 2 2 3 3 4 5 4 3 2 3 4 5 5 6 5 5 5 5 6 7 9 14 17 18 20 20 20 20 20 19 19 19 18 18 18 18 18 18 18 18 18 18 18 18 18 18 18 18 18 18 18 18 18 18 18 18
4 4 4 5 5 5 4 3 3 3 3 3 3 3 3 3 3 4 4 4 5 5 5 5 5 5 5 6 5 3 2 2 3 3 5 5 5 3 2 3 4 5 5 6 5 5 5 6 8 11 15 18 20 20 21 21 21 20 20 20 19 19 19 19 19 19 19 19 19 19 19 19 19 19 19 19 19 19 18 18 19 19 19 19 19 19
4 4 3 4 4 4 4 4 4 4 4 4 4 4 4 4 4 4 4 4 4 4 4 5 6 6 5 6 5 3 1 1 2 3 4 6 6 5 3 4 4 5 5 6 5 5 6 7 8 11 15 17 19 21 21 21 21 20 20 20 19 19 19 19 19 19 19 19 19 19 19 19 19 19 19 19 19 19 19 19 19 19 19 19 19 19
5 4 4 3 3 4 4 3 4 4 5 5 5 4 5 4 5 5 4 4 4 4 4 5 6 6 5 5 5 3 2 2 3 4 4 5 6 5 3 3 4 5 6 6 6 5 6 7 7 8 11 16 19 21 22 22 21 21 20 20 20 20 19 20 20 20 20 20 20 20 20 20 20 20 20 20 19 19 19 19 19 19 19 20 20 20
5 5 4 4 4 4 6 5 6 7 8 6 5 5 4 4 5 5 5 5 5 5 5 6 6 6 5 6 6 5 3 3 4 5 4 5 6 5 3 3 4 5 6 5 5 5 5 6 7 8 12 17 20 21 22 22 22 21 21 21 20 20 20 20 20 20 21 21 21 21 21 21 20 20 20 20 20 20 20 20 20 20 20 20 20 20
6 6 5 5 5 6 6 7 7 7 7 7 7 7 5 4 5 6 5 5 6 6 7 7 7 7 6 6 6 5 4 4 4 4 4 6 7 6 3 3 4 5 6 5 5 5 6 6 7 9 12 17 20 21 22 22 22 22 21 21 21 21 21 21 21 21 21 21 21 21 21 21 21 21 20 20 20 20 20 20 20 20 21 21 21 21
6 6 6 6 6 6 6 6 6 6 6 6 6 6 5 6 6 6 6 6 6 7 7 7 8 8 7 6 6 5 4 3 3 3 4 5 6 6 4 3 5 6 6 5 5 6 6 7 7 8 9 15 18 20 22 22 22 22 22 21 21 21 21 22 22 22 22 22 22 21 21 21 21 20 20 20 20 20 20 20 21 21 21 21 21 20
6 6 6 6 7 7 8 8 8 7 7 6 5 5 5 6 7 7 6 6 6 6 6 7 8 8 6 5 4 3 2 3 3 3 3 4 5 6 4 4 4 6 7 5 5 5 6 7 7 7 8 11 15 18 20 21 22 22 22 22 22 22 22 22 22 22 22 22 22 21 21 21 20 20 20 20 19 20 20 20 21 21 20 19 19 18
11 11 12 13 15 17 18 18 17 16 15 12 9 7 6 6 6 5 5 4 4 5 6 6 6 5 4 3 2 2 2 3 3 3 3 4 5 6 5 3 4 5 7 5 5 5 6 7 7 6 6 8 11 15 18 20 21 22 22 22 22 22 22 23 23 23 23 22 22 21 21 20 20 20 19 19 19 20 20 20 20 19 19 18 17 16
17 18 19 20 21 21 21 21 21 21 21 19 16 13 10 8 7 7 7 5 4 4 5 6 6 6 4 4 4 4 3 3 3 3 3 4 6 6 5 4 4 5 7 6 5 5 7 7 6 5 5 5 7 11 16 19 21 22 23 23 23 23 23 23 23 23 23 22 22 21 21 20 20 19 19 19 20 20 20 20 19 18 17 15 14 12
17 18 18 19 20 20 20 20 20 20 20 20 20 19 14 9 8 8 8 6 5 5 7 8 8 8 7 7 6 5 4 4 4 3 3 4 6 6 5 4 4 4 5 5 4 4 6 6 5 5 5 5 6 8 13 17 19 21 21 22 22 23 23 23 23 23 22 22 21 21 20 20 20 20 20 20 20 20 21 20 19 18 15 12 9 7
14 15 16 17 18 19 19 18 17 17 18 19 20 18 13 9 7 8 7 6 6 7 9 9 8 8 9 9 8 7 6 5 4 3 3 4 5 5 3 3 3 3 3 4 4 4 4 4 4 4 4 6 6 7 8 12 14 15 17 19 20 21 21 22 22 22 22 21 21 21 20 20 21 21 21 21 21 21 21 21 19 16 11 8 7 6
10 11 12 13 14 14 14 12 12 13 16 17 18 16 12 8 7 7 7 6 6 7 9 9 8 8 8 7 7 6 6 4 3 2 2 3 4 4 2 2 3 2 2 3 4 5 5 4 3 4 4 5 5 5 5 6 7 8 9 12 14 16 18 20 20 21 21 21 21 21 21 21 22 22 22 21 21 21 20 21 18 14 8 6 6 6
7 8 8 8 8 8 8 7 8 9 11 13 13 12 9 7 6 5 5 5 6 7 8 8 8 7 7 6 6 6 5 4 3 2 0 2 3 3 2 3 3 3 2 3 4 5 6 4 4 4 4 4 3 3 4 4 4 5 5 6 8 10 15 17 18 19 19 19 20 20 21 22 22 22 22 21 21 20 20 20 17 13 7 6 6 7
7 8 8 7 7 6 6 6 6 6 7 7 8 7 7 7 6 5 5 5 5 6 7 7 7 7 7 7 7 7 5 4 4 3 2 2 3 3 2 3 3 3 2 2 4 5 6 4 4 4 4 4 4 4 4 5 5 5 5 6 6 8 12 14 15 15 15 16 18 19 20 21 22 22 21 21 20 19 19 19 17 13 7 6 6 7
7 7 7 7 7 6 6 6 6 6 6 6 5 6 6 6 7 6 6 5 5 6 6 7 8 8 8 9 8 7 5 3 4 4 4 3 3 3 2 3 4 5 4 4 4 5 6 6 5 5 5 5 5 5 5 5 6 6 6 6 6 8 10 11 11 11 11 12 14 15 18 19 20 20 20 20 20 19 19 19 18 15 10 7 7 7
7 7 7 7 7 6 6 6 6 6 6 6 6 6 5 5 6 6 6 5 5 5 5 6 7 7 7 6 6 5 5 4 5 6 6 4 4 4 4 5 6 7 6 5 5 5 6 6 6 6 6 6 6 5 5 5 6 6 6 6 7 7 7 7 7 8 9 8 8 9 12 13 15 16 17 18 18 18 18 19 19 18 16 11 8 7
7 7 7 6 6 6 6 6 6 6 6 6 6 6 6 5 5 5 5 5 5 5 5 6 6 6 6 6 7 7 7 6 6 7 8 6 5 4 5 5 6 6 7 6 6 5 6 7 8 8 8 7 7 6 5 5 5 5 5 6 6 6 6 6 6 6 7 7 7 7 8 8 9 10 12 14 16 17 18 19 19 20 19 17 14 11
6 7 7 6 6 6 6 6 6 6 6 6 6 6 6 5 5 5 5 5 6 6 7 7 6 6 6 7 8 8 8 7 7 8 8 6 5 5 5 5 5 6 7 8 7 6 6 8 9 10 10 10 9 7 6 5 5 4 4 5 5 6 6 5 5 5 5 6 6 6 7 7 7 8 9 13 15 17 18 19 20 20 20 20 19 17
6 6 6 6 6 6 7 6 5 5 5 5 5 5 5 5 5 5 5 6 6 7 7 8 8 8 8 7 7 8 8 7 7 8 8 7 6 6 7 7 7 7 8 8 8 8 7 9 10 10 10 10 9 8 7 5 5 5 4 4 5 5 5 5 5 5 5 7 7 7 8 7 8 8 9 12 14 16 17 18 19 19 20 21 21 21
6 6 6 5 5 5 6 5 5 5 5 5 5 5 5 5 6 6 6 6 7 7 7 7 8 9 11 11 11 10 9 9 9 9 10 8 7 7 8 8 8 9 9 9 9 8 8 9 10 10 10 9 10 10 9 7 6 6 6 5 5 5 5 5 5 5 6 7 8 9 9 9 8 8 8 9 9 9 10 11 12 14 17 17 19 21
6 6 6 6 6 5 5 5 5 5 5 5 5 6 6 7 7 7 6 6 7 7 7 7 8 8 10 11 12 13 12 11 10 10 9 8 8 7 8 9 9 9 9 9 9 9 9 9 9 9 9 9 9 9 9 8 7 7 7 6 6 7 6 6 6 6 6 7 8 9 9 8 8 7 7 6 6 7 7 7 8 9 10 10 12 15
7 6 6 7 6 6 6 6 6 6 6 7 8 8 8 8 8 8 7 7 7 7 8 8 8 8 9 10 11 12 12 10 10 9 8 8 8 8 9 9 10 9 9 9 8 9 9 9 10 10 10 9 9 9 8 8 7 7 8 7 7 7 7 6 6 6 6 6 7 8 7 7 7 8 8 7 7 7 7 6 7 7 8 7 7 7
7 7 7 7 7 7 7 7 7 7 7 7 7 7 7 7 7 7 7 7 7 7 7 8 8 8 9 9 9 10 10 10 10 10 9 10 11 10 9 8 8 8 7 8 8 8 8 9 10 10 10 10 10 11 10 10 10 11 11 9 9 8 8 9 8 8 7 7 7 7 8 9 9 9 9 9 8 8 8 7 7 7 7 7 6 6
8 8 7 7 7 6 6 7 7 8 8 7 6 6 6 6 6 6 6 6 6 6 6 6 7 8 8 8 8 8 8 8 9 9 10 10 10 9 7 7 6 6 7 7 8 8 9 9 10 10 10 10 10 10 10 10 11 11 11 11 10 10 11 10 9 8 8 8 7 8 9 9 8 8 9 9 9 8 9 9 9 10 9 8 7 7
8 7 7 7 7 7 7 8 8 7 7 6 6 6 5 5 5 5 7 7 7 7 7 7 7 8 9 9 8 8 7 7 8 9 9 9 8 8 8 8 7 7 7 7 8 9 9 10 10 10 10 9 10 11 11 11 11 11 11 11 10 9 7 7 6 6 7 7 7 7 8 8 8 8 8 8 8 8 8 10 11 12 11 9 8 8
7 7 7 7 7 7 7 7 6 6 6 7 7 6 6 6 6 7 7 7 8 8 8 7 7 8 9 9 9 9 8 6 7 7 8 9 10 10 10 9 9 8 8 8 8 8 9 9 10 10 9 9 10 10 11 11 10 10 10 10 11 10 9 7 6 6 8 7 7 7 7 7 8 8 8 8 8 8 8 9 9 9 10 9 9 9
7 7 7 7 7 7 7 7 7 7 7 7 7 7 7 7 7 7 7 7 7 8 8 7 7 7 8 9 9 8 8 7 6 6 7 9 11 12 11 9 8 8 8 8 8 8 8 9 9 9 8 9 10 10 11 11 11 10 10 10 10 11 11 9 8 8 9 9 9 9 9 8 8 8 9 9 9 9 9 9 9 9 8 8 8 9
7 7 7 7 7 7 8 8 7 7 7 7 7 7 6 6 6 6 6 7 7 8 7 7 7 7 8 9 8 8 8 8 8 7 6 6 7 7 7 8 8 8 7 8 8 9 9 9 9 9 9 9 10 11 11 11 11 11 10 10 10 10 10 10 9 9 9 10 10 10 9 8 8 8 9 10 10 9 9 9 9 9 8 8 8 9
7 7 7 7 7 7 7 7 7 7 7 8 8 7 6 6 6 6 6 7 7 7 7 7 7 7 9 9 8 8 9 9 9 8 7 7 6 6 6 7 7 8 8 8 9 10 10 10 11 10 10 10 10 11 11 11 11 11 11 11 10 10 10 10 9 9 9 9 9 9 8 8 8 9 10 10 10 9 9 8 8 8 8 8 9 9
7 7 8 7 7 8 7 7 7 7 8 8 8 7 7 7 7 7 7 6 6 7 7 7 7 8 9 9 8 9 9 10 10 9 9 8 7 7 7 7 7 7 8 9 10 11 11 12 12 12 11 11 11 11 11 11 11 11 11 11 11 11 11 11 10 9 9 9 9 8 7 7 8 8 9 9 9 8 8 8 8 8 8 8 9 9
7 8 8 8 8 8 8 7 7 8 8 8 8 8 7 8 9 9 7 6 6 6 6 7 8 8 9 8 9 9 10 10 10 9 8 8 7 7 6 6 6 7 7 8 9 10 10 12 13 14 13 12 12 12 12 11 11 11 11 10 10 10 11 11 10 9 9 9 9 8 7 7 7 8 7 8 9 9 9 9 9 8 8 8 9 9
8 7 8 8 8 8 8 8 8 8 8 8 8 8 8 7 7 6 6 6 6 6 6 7 8 8 9 9 9 9 9 9 9 9 8 7 7 7 6 6 7 7 7 6 6 7 7 8 10 12 15 15 15 13 12 12 11 11 10 10 10 10 10 10 10 10 9 9 8 7 7 6 6 6 6 8 9 10 10 10 9 9 8 8 8 9
8 8 7 7 7 8 8 8 8 8 8 9 9 8 8 7 7 6 5 6 6 6 7 7 7 8 9 9 9 9 9 9 9 9 9 7 7 7 7 7 7 7 7 7 6 6 5 6 6 7 10 15 17 16 13 12 11 10 10 10 9 9 9 9 9 9 9 8 7 7 7 7 7 7 7 8 9 10 10 10 9 9 8 7 8 9
Wind_Direction
304 311 313 319 318 315 311 320 323 322 318 323 327 331 336 334 326 309 292 284 280 278 285 290 295 299 301 306 308 309 309 308 307 305 302 298 296 294 294 296 298 301 303 303 303 303 303 302 301 301 299 297 295 293 292 290 289 288 286 285 283 282 281 281 282 282 283 284 285 287 290 295 300 306 310 312 313 314 315 317 318 319 320 319 317 314
311 310 309 315 314 310 305 310 311 310 309 311 313 318 324 323 321 316 307 293 282 276 282 284 287 287 287 290 293 296 297 299 299 298 296 293 290 290 291 294 296 298 302 303 304 305 307 307 307 306 304 301 299 297 295 295 294 293 291 290 287 285 283 282 281 281 281 282 283 284 287 291 295 300 304 306 308 310 312 314 316 318 319 318 317 315
314 311 309 310 307 301 298 302 301 296 294 297 298 302 309 311 311 311 311 306 301 295 293 293 292 290 285 281 280 281 284 288 291 293 294 294 294 295 298 300 303 304 306 308 310 311 312 312 311 309 307 304 302 301 300 301 302 302 302 300 297 293 289 285 282 281 279 279 279 280 282 285 290 294 299 302 305 307 310 312 314 316 317 317 317 315
310 310 313 315 307 295 293 299 300 299 297 293 289 286 284 286 287 287 286 285 285 284 282 278 275 273 272 267 265 267 273 278 284 289 293 297 300 303 306 308 310 311 313 314 314 315 315 313 311 308 306 305 304 305 307 310 314 318 320 318 315 309 302 295 289 284 279 277 276 276 278 282 286 291 296 300 303 304 306 308 311 313 315 316 316 316
311 314 320 324 318 312 311 318 322 324 320 307 297 289 279 280 281 280 270 261 260 263 265 258 253 252 258 258 264 270 275 280 285 290 293 298 302 305 308 309 310 312 314 314 314 313 312 309 307 304 303 304 305 308 312 319 326 332 336 337 335 329 323 314 305 296 288 283 280 279 281 284 288 292 296 299 300 301 302 305 307 310 312 314 315 315
314 318 325 324 320 319 325 333 339 339 333 326 322 321 321 319 317 314 306 302 294 289 285 280 271 269 276 289 301 305 304 304 304 304 302 303 303 304 305 306 308 309 310 310 310 308 306 304 302 301 302 304 307 311 315 324 331 338 344 345 343 341 337 330 323 316 308 301 296 292 291 292 294 296 297 298 298 299 300 302 304 306 308 310 312 313
313 318 326 319 316 316 321 328 339 343 341 336 334 333 331 330 328 325 322 323 321 317 314 313 315 319 321 328 331 331 328 323 319 316 311 308 306 305 305 305 306 307 307 306 305 303 301 299 298 299 301 304 307 310 315 322 330 336 340 341 341 339 337 333 329 325 319 315 310 305 302 300 300 299 299 298 298 298 299 300 302 303 304 306 308 310
310 315 323 320 318 318 318 323 338 349 350 342 335 331 326 324 321 319 318 321 324 327 327 327 328 330 330 331 331 330 327 323 318 314 311 308 307 306 305 305 305 304 304 302 300 298 296 296 296 298 301 303 306 309 313 320 326 330 332 332 331 330 328 327 325 322 319 317 314 310 307 304 302 301 300 300 299 300 300 300 300 300 301 303 304 306
308 313 318 320 322 320 317 318 332 349 353 344 335 327 322 317 315 314 316 319 326 336 338 331 325 321 318 320 321 319 314 311 308 306 305 304 304 304 304 303 302 301 299 298 296 294 293 294 296 299 300 302 304 307 311 317 321 323 324 323 322 320 319 317 316 314 313 311 310 308 306 304 302 301 300 300 300 300 300 300 300 300 300 301 302 303
304 308 312 312 314 313 311 311 318 333 346 338 325 314 309 312 314 315 315 314 320 330 332 323 316 312 310 311 310 310 309 305 302 300 299 298 298 299 298 298 297 296 294 294 293 293 294 295 297 298 299 300 302 305 309 313 315 317 316 315 314 312 311 309 308 307 306 305 304 303 301 301 300 299 298 299 299 299 299 299 299 299 299 299 300 300
306 306 305 304 302 299 294 296 300 312 335 328 316 303 292 307 317 319 315 311 313 316 312 306 304 305 307 307 307 306 305 301 298 297 296 295 295 295 295 294 293 292 292 293 294 294 295 295 296 296 296 297 299 302 304 307 308 309 308 308 306 305 304 303 302 301 299 298 298 297 296 296 295 295 295 295 295 296 296 296 296 296 296 297 297 297
303 303 297 298 299 299 293 289 296 312 334 327 319 312 306 305 312 312 306 304 306 307 305 300 294 291 294 299 301 301 297 292 291 291 292 292 292 293 293 293 293 293 293 293 293 293 293 293 293 293 293 294 295 297 298 299 300 300 300 300 299 299 298 297 297 296 295 294 294 293 292 292 291 291 291 291 292 292 292 292 292 293 293 293 293 293
291 292 291 293 296 297 297 300 307 315 323 315 306 302 300 295 291 291 290 292 296 299 300 297 293 287 282 282 286 288 286 284 283 285 287 289 291 293 293 292 291 291 292 292 289 287 287 289 289 289 290 290 290 292 293 293 293 293 293 293 293 292 292 292 292 292 292 291 291 290 289 289 288 288 288 288 288 288 288 288 289 289 289 289 289 290
292 292 293 296 296 295 293 295 296 297 295 288 282 280 281 285 289 290 288 288 288 290 291 291 291 291 287 276 271 270 275 281 285 287 287 286 285 284 286 288 287 288 290 288 284 280 280 283 284 285 285 285 286 287 287 287 287 287 287 287 287 288 288 288 289 289 289 289 289 288 288 287 286 286 285 285 285 285 285 285 285 285 286 286 286 286
303 304 302 300 298 296 292 290 288 285 283 275 271 275 281 286 289 289 289 291 293 295 295 291 290 289 283 270 262 260 271 286 290 291 291 285 274 263 267 287 290 290 290 288 285 281 280 279 277 274 275 275 276 277 280 281 282 283 284 285 285 285 286 286 287 287 287 287 287 286 286 285 284 284 283 283 282 282 282 282 282 282 283 283 283 284
303 303 300 299 298 296 295 292 291 290 289 283 279 281 288 290 289 288 287 293 297 302 300 299 297 293 283 268 254 235 216 261 274 283 292 287 278 261 257 287 292 292 290 287 285 284 283 277 271 267 267 272 275 278 280 281 282 283 284 285 285 285 285 285 285 285 285 285 285 284 284 284 283 282 282 281 281 280 280 280 280 280 280 281 281 282
296 295 293 294 294 295 297 294 292 293 295 293 290 286 285 286 288 288 287 292 296 298 296 298 298 298 296 290 270 232 204 240 265 278 287 286 282 273 263 278 285 287 287 283 281 281 282 278 275 272 270 274 278 281 283 283 284 285 285 285 285 285 285 285 284 284 284 283 283 283 283 282 282 281 281 280 280 279 278 278 278 278 278 279 279 279
289 291 292 291 292 293 297 297 295 293 292 291 288 284 280 279 282 284 284 288 290 290 290 289 287 287 294 293 279 246 211 241 266 278 282 281 281 276 262 265 271 276 279 277 276 276 277 276 276 277 278 281 282 284 285 285 285 285 285 285 285 284 284 284 284 284 283 283 283 282 282 282 281 281 280 280 279 278 278 277 277 277 277 277 277 277
289 289 290 289 289 289 290 290 289 288 286 283 283 284 283 281 281 281 280 280 279 278 280 280 278 276 278 279 275 258 215 236 261 276 279 281 282 280 271 268 270 272 274 275 276 276 277 277 279 280 282 283 284 284 285 285 285 285 284 284 284 283 283 283 283 283 284 284 283 283 283 283 282 282 281 280 279 279 278 277 277 276 276 276 276 276
285 281 276 280 281 281 279 275 274 274 274 276 278 281 281 280 277 273 270 267 264 263 263 267 268 269 269 272 272 265 214 229 261 274 277 281 283 284 283 278 278 277 275 275 275 276 277 277 279 281 282 282 283 283 284 284 284 283 283 283 283 283 283 283 283 283 284 284 284 284 284 283 283 282 281 281 280 279 279 278 277 277 276 276 276 276
282 275 264 264 269 274 274 270 265 265 268 273 274 274 272 272 270 266 262 260 259 258 255 257 259 260 259 264 265 259 226 249 268 276 279 278 278 278 279 272 272 272 273 272 271 269 270 272 274 276 277 278 279 280 281 281 282 282 282 281 282 282 282 282 283 283 283 283 283 283 283 283 283 282 281 281 280 280 279 279 278 278 278 277 277 277
280 277 268 260 261 267 273 272 270 268 269 270 269 266 265 266 265 265 263 262 262 260 257 257 257 258 257 260 262 259 241 248 262 272 279 276 275 273 268 262 264 268 270 271 269 266 263 265 266 268 270 273 275 277 278 279 279 280 280 280 280 280 281 281 282 282 282 283 283 283 283 282 282 282 281 281 280 280 280 279 279 279 278 278 277 276
274 275 275 267 263 264 268 269 269 269 269 265 261 259 259 259 263 267 269 267 267 268 268 268 269 270 268 269 270 269 257 250 253 262 271 275 279 281 277 269 269 270 269 272 272 269 262 261 262 264 267 270 271 273 275 276 277 277 278 278 278 278 279 280 280 281 281 282 282 282 281 281 281 280 280 280 280 280 280 279 279 278 277 276 275 274
272 273 274 268 263 261 261 263 264 263 260 256 255 255 255 255 259 263 268 270 272 274 276 278 278 277 273 272 272 269 254 237 235 247 262 274 279 283 284 278 276 276 274 272 272 270 267 263 261 262 264 267 268 270 272 273 274 275 275 276 276 277 277 278 279 280 281 281 281 281 280 280 279 279 279 279 279 280 279 279 277 276 275 274 274 274
290 287 284 281 280 281 283 282 281 280 279 274 268 263 260 260 260 262 263 265 267 270 273 274 274 273 273 268 264 258 239 219 219 233 257 271 276 277 278 276 277 278 278 274 268 264 266 264 262 261 262 265 266 268 269 271 271 272 273 273 274 275 276 277 278 279 280 280 280 280 279 279 279 279 279 280 280 281 280 279 277 276 275 275 275 276
307 306 306 305 303 302 302 302 303 304 305 305 303 301 297 290 284 280 273 267 265 267 269 269 271 274 280 276 270 262 250 231 228 234 254 272 278 278 278 278 276 276 278 275 265 259 262 263 261 259 259 263 265 265 266 268 269 270 270 271 272 273 274 276 277 278 279 279 280 279 279 279 279 280 281 282 283 283 283 281 280 279 278 279 279 280
313 312 311 311 310 310 309 309 309 309 309 309 310 310 311 312 308 300 292 293 293 289 283 284 287 290 290 282 276 272 270 261 254 255 266 279 282 282 285 285 279 276 277 275 268 261 263 266 266 262 258 258 260 261 262 264 265 266 267 269 270 271 273 274 276 277 278 279 279 279 279 279 280 281 282 284 284 285 284 283 283 282 282 282 282 281
319 319 317 316 314 312 311 310 310 310 310 309 309 309 309 310 305 299 296 306 309 302 292 292 293 293 289 285 283 282 282 279 278 278 279 277 276 279 289 289 280 274 280 284 280 270 266 267 266 261 253 250 250 253 256 258 261 263 264 266 268 270 271 273 274 276 277 277 278 278 278 279 280 282 283 284 284 284 283 283 283 283 283 283 282 281
324 322 319 317 315 313 312 312 312 311 309 307 306 306 306 304 298 296 299 309 308 299 291 291 290 289 288 288 288 286 282 279 278 274 265 266 270 276 295 290 280 279 294 299 292 278 262 259 255 249 246 244 244 246 251 254 257 260 263 265 267 269 271 272 273 274 274 275 276 276 277 279 280 282 283 283 282 281 280 280 280 281 281 281 280 279
325 322 318 315 314 313 312 311 310 308 306 305 304 303 302 298 292 291 295 299 295 290 287 287 285 282 282 285 285 282 275 275 274 266 246 261 271 282 305 293 285 287 312 307 298 288 276 268 261 254 251 246 244 244 250 252 255 259 263 266 268 269 270 271 271 271 272 272 273 274 276 278 280 282 282 281 279 277 276 276 277 277 278 278 278 279
320 318 313 312 311 310 309 305 303 302 302 302 303 302 300 295 288 284 286 286 283 281 280 280 278 277 276 279 280 280 279 283 285 284 276 270 277 287 308 291 286 287 304 302 296 293 291 285 275 270 270 264 258 254 256 259 259 259 262 267 269 269 268 268 269 269 269 270 272 274 276 278 280 280 280 278 276 274 273 273 274 275 278 279 279 279
317 315 312 311 310 309 306 304 302 301 301 301 301 300 297 295 291 288 286 286 284 284 283 285 287 287 285 282 280 280 284 290 303 318 338 299 291 296 309 290 287 289 292 281 281 285 291 291 288 285 284 282 279 273 268 268 266 264 262 264 265 266 265 265 266 267 267 269 272 274 276 277 278 279 278 275 273 271 270 270 270 272 274 276 277 277
315 314 311 311 310 309 307 305 304 303 302 301 300 298 296 294 293 291 289 288 288 289 291 294 293 289 282 277 275 276 285 299 325 337 338 317 305 301 302 291 290 291 294 278 271 273 280 287 290 290 284 282 280 276 270 266 263 260 257 257 259 261 261 261 262 264 265 267 270 273 274 276 276 275 274 272 270 268 267 267 267 268 269 271 272 273
313 310 308 308 307 306 304 302 301 300 300 299 298 296 293 290 288 287 285 283 281 281 281 282 281 281 283 283 285 290 298 308 319 323 321 310 300 295 294 288 287 289 292 283 276 273 276 280 284 286 284 279 275 270 267 263 258 252 247 247 251 255 257 256 257 259 261 263 265 268 269 271 271 271 270 268 266 265 265 265 266 266 267 266 266 268
308 307 305 305 304 302 300 298 297 296 296 295 293 291 289 286 284 283 283 283 283 282 280 280 284 291 300 303 300 297 293 296 300 303 301 295 291 288 287 280 282 284 286 281 278 278 278 278 279 281 283 282 278 273 267 263 257 251 243 242 245 249 251 250 252 257 260 260 260 260 261 262 262 262 262 262 261 262 263 264 265 266 266 265 264 263
305 304 302 300 299 297 296 295 294 293 293 291 289 288 288 289 290 290 291 292 291 290 288 288 289 289 288 283 281 282 283 286 290 291 289 285 283 282 280 277 277 279 280 279 278 278 279 279 279 279 280 280 279 277 271 265 261 256 249 245 246 249 252 250 251 255 261 261 260 259 258 257 255 254 254 257 259 260 262 264 265 266 266 265 264 262
301 299 297 294 293 293 293 292 291 289 288 287 288 290 292 294 295 295 294 292 291 289 288 287 284 281 276 272 271 272 277 281 282 281 279 278 276 275 274 276 276 275 274 276 277 277 276 278 279 278 275 274 276 278 280 278 275 271 265 256 253 255 258 256 253 253 258 260 261 260 259 257 256 255 255 257 259 262 264 265 265 266 266 265 264 263
297 295 294 292 291 291 293 292 291 291 292 295 298 299 300 299 296 294 293 291 290 289 288 288 286 284 281 278 275 273 273 274 273 272 270 269 267 267 269 273 272 270 268 270 272 273 273 274 276 276 275 273 274 277 282 282 281 278 275 269 264 261 262 260 255 252 253 257 260 261 260 258 258 257 259 259 260 262 264 264 264 264 264 263 263 262
296 296 297 298 298 297 298 298 301 305 311 313 313 312 310 306 303 299 296 294 292 289 287 286 285 284 283 281 279 278 277 275 272 268 265 262 259 260 263 267 268 267 265 265 266 267 266 267 268 271 274 275 276 276 276 276 275 276 278 276 270 265 261 259 255 252 251 254 257 259 260 258 258 258 260 259 260 260 261 261 259 257 257 258 260 261
300 300 300 303 305 306 307 310 313 317 319 316 314 312 311 309 306 303 300 296 294 291 288 285 283 281 280 279 278 278 278 277 275 272 268 262 257 256 258 261 264 265 265 263 262 261 260 261 263 266 268 272 275 276 275 272 270 272 274 275 272 267 263 261 257 253 250 249 252 255 258 258 258 257 257 256 255 255 255 256 255 252 248 247 250 256
306 305 305 307 309 310 310 312 313 314 312 310 308 306 305 303 301 299 297 295 292 289 287 285 283 280 277 274 274 274 274 273 272 270 268 263 259 257 258 259 263 265 267 265 262 259 257 260 263 265 266 269 272 273 273 271 271 271 272 271 272 272 272 267 263 259 254 251 249 250 255 257 258 257 256 255 253 251 249 250 250 248 246 242 240 242
307 307 307 308 307 307 306 305 302 300 298 296 294 293 292 292 292 292 293 291 289 287 285 285 285 285 283 279 276 275 273 272 270 269 269 268 267 266 266 266 267 269 270 269 266 263 260 261 263 265 266 269 271 273 272 271 270 269 268 269 272 274 274 267 261 257 255 253 252 252 253 256 257 257 257 256 254 252 249 246 245 244 244 241 238 237
304 303 302 301 300 298 297 296 295 294 293 290 288 286 286 286 286 287 289 289 290 290 290 290 290 291 291 290 289 287 283 279 277 277 278 279 280 278 274 268 264 262 262 265 266 266 264 263 263 264 266 268 269 270 272 272 270 267 263 264 266 268 269 263 258 254 253 252 251 249 250 253 256 257 257 256 255 254 251 249 248 246 244 243 241 239
298 298 297 296 295 294 295 294 293 292 292 291 291 290 290 288 287 287 287 289 291 293 295 295 294 291 289 289 290 290 288 284 279 276 275 273 271 270 270 266 263 259 257 259 264 268 270 267 265 265 267 268 268 268 269 270 269 266 263 260 257 256 257 261 262 260 257 255 252 250 249 252 255 258 259 257 256 255 253 251 249 248 245 243 242 242
295 295 295 295 295 296 296 294 294 294 295 294 293 292 292 290 289 288 288 288 289 290 291 293 293 290 287 288 290 292 293 291 286 280 274 273 273 273 272 270 267 264 260 258 259 263 267 268 269 270 270 269 269 269 270 272 272 271 267 262 257 254 253 256 257 256 256 256 256 254 252 252 255 257 258 257 255 254 252 251 250 249 246 244 243 244
292 293 293 294 295 296 295 296 297 296 294 292 291 290 290 288 286 284 283 284 285 287 288 289 289 288 287 291 294 296 297 296 295 292 289 284 280 277 275 272 269 267 264 261 259 258 259 263 267 270 271 269 267 266 267 270 273 274 273 269 266 262 260 257 254 251 251 253 254 253 251 250 251 252 253 254 253 252 250 248 247 247 246 245 245 246
292 293 295 296 297 296 296 296 295 293 290 289 289 290 289 288 286 284 282 282 283 285 287 287 286 284 285 288 292 294 295 295 295 295 293 291 288 284 281 276 271 267 263 261 259 257 256 257 259 261 263 265 265 265 264 265 267 269 271 271 270 268 266 262 258 254 250 250 251 252 252 250 248 248 249 251 252 252 250 249 247 246 245 246 246 246
297 298 298 298 297 295 294 294 293 291 290 290 290 289 289 288 288 287 285 285 285 287 288 288 286 284 283 284 286 288 289 291 293 294 294 293 291 288 284 280 275 270 264 260 258 257 255 253 252 251 252 256 260 263 265 264 263 263 265 266 267 266 265 264 263 260 256 253 251 251 249 247 246 247 249 251 252 253 252 251 249 246 243 243 243 244
299 297 296 296 295 294 293 293 292 291 290 291 291 290 289 288 288 288 287 287 287 286 286 285 285 284 284 284 285 286 286 287 288 288 289 289 289 287 283 280 277 274 269 263 259 257 255 252 248 244 242 244 250 256 261 261 260 260 260 261 261 262 263 264 264 263 260 258 255 252 247 246 246 247 250 253 255 257 257 256 254 250 245 241 239 239
295 294 294 294 293 292 292 292 292 292 291 291 291 291 291 289 288 286 285 285 284 282 281 281 282 283 283 284 285 285 285 284 284 285 285 286 286 285 284 282 281 280 277 272 267 263 260 257 250 242 235 234 237 243 253 256 258 258 257 256 256 257 260 262 262 262 260 260 258 255 250 249 248 247 249 253 256 258 259 258 256 252 246 239 236 236
295 293 293 292 291 291 291 291 291 291 290 290 291 291 291 291 290 288 286 284 282 281 280 279 279 279 281 283 283 283 283 283 283 284 284 284 285 284 283 283 283 283 283 282 280 277 275 275 269 257 241 233 230 231 240 247 252 256 256 255 253 253 255 258 260 260 259 258 258 256 254 251 250 248 246 250 254 257 258 257 255 252 246 239 236 236